Location: Newark
(52.3500°N, 175.9667°E)
Time: 21:50:07
(UTC+00:00)

Transit 4A - Pass Details

Date: 23 April 2021
Orbit: 871 x 974 km, 66.8° (Epoch: 16 May)

Event Time Altitude Azimuth Distance (km) Brightness Sun altitude
Rises 09:54:16 0° 171° (S) 3,621 - -18.3°
Reaches altitude 10° 09:57:20 10° 158° (SSE) 2,665 - -18.6°
Maximum altitude 10:02:02 23° 108° (ESE) 1,873 - -19.0°
Exits shadow 10:02:16 23° 105° (ESE) 1,875 9.1 -19.0°
Drops below altitude 10° 10:06:40 10° 59° (ENE) 2,624 10.2 -19.4°
Sets 10:09:39 0° 45° (NE) 3,552 11.1 -19.6°
